Tracking 28335 objects as of 4-Dec-2023
HD Live streaming from Space Station
objects crossing your sky now

STARLINK-3902

Track STARLINK-3902 now!
10-day predictions
STARLINK-3902 is classified as:


NORAD ID: 52487
Int'l Code: 2022-049AN
Perigee: 545.8 km
Apogee: 548.0 km
Inclination: 53.2 °
Period: 95.4 minutes
Semi major axis: 6917 km
RCS: Unknown
Launch date: May 6, 2022
Source: United States (US)
Launch site: AIR FORCE EASTERN TEST RANGE (AFETR)
Your satellite tracking list
Your tracking list is empty




NASA's NSSDC Master Catalog

Two Line Element Set (TLE):
1 52487U 22049AN  23337.51512357 -.00000958  00000-0 -42133-4 0  9991
2 52487  53.2160 162.5605 0001531  83.3802 276.7365 15.08835976 88750
Source of the keplerian elements: AFSPC